owner,sensor,date,latitude,longitude,vertical_datum,wind_speed,wind_to_direction,wind_speed_of_gust,qcFlag 
NDBC,ioos:station:NOAA.NDBC:SANF1:1,2015-06-01T00:50:00Z,24.4560,-81.8770,45.4,5.7,110.0,6.2,'1111122,1111122,1111122' 
NDBC,ioos:station:NOAA.NDBC:SANF1:1,2015-06-01T02:50:00Z,24.4560,-81.8770,45.4,5.7,140.0,6.2,'1111122,1111122,1111122' 
NDBC,ioos:station:NOAA.NDBC:SANF1:1,2015-06-01T03:50:00Z,24.4560,-81.8770,45.4,5.1,130.0,6.2,'1111122,1111122,1111122' 
NDBC,ioos:station:NOAA.NDBC:SANF1:1,2015-06-01T04:50:00Z,24.4560,-81.8770,45.4,6.7,130.0,7.2,'1111122,1111122,1111122' 
NDBC,ioos:station:NOAA.NDBC:SANF1:1,2015-06-01T05:50:00Z,24.4560,-81.8770,45.4,6.2,130.0,7.2,'1111122,1111122,1111122' 
NDBC,ioos:station:NOAA.NDBC:SANF1:1,2015-06-01T06:50:00Z,24.4560,-81.8770,45.4,5.1,120.0,6.2,'1111122,1111122,1111122' 
NDBC,ioos:station:NOAA.NDBC:SANF1:1,2015-06-01T07:50:00Z,24.4560,-81.8770,45.4,5.1,120.0,6.2,'1111122,1111122,1111122' 
NDBC,ioos:station:NOAA.NDBC:SANF1:1,2015-06-01T08:50:00Z,24.4560,-81.8770,45.4,4.6,120.0,5.1,'1111122,1111122,1111122' 
NDBC,ioos:station:NOAA.NDBC:SANF1:1,2015-06-01T09:50:00Z,24.4560,-81.8770,45.4,4.6,110.0,5.7,'1111122,1111122,1111122' 
NDBC,ioos:station:NOAA.NDBC:SANF1:1,2015-06-01T11:50:00Z,24.4560,-81.8770,45.4,4.1,110.0,4.6,'1111122,1111122,1111122' 
NDBC,ioos:station:NOAA.NDBC:SANF1:1,2015-06-01T12:50:00Z,24.4560,-81.8770,45.4,5.7,110.0,6.2,'1111122,1111122,1111122' 
NDBC,ioos:station:NOAA.NDBC:SANF1:1,2015-06-01T13:50:00Z,24.4560,-81.8770,45.4,6.2,120.0,6.7,'1111122,1111122,1111122' 
NDBC,ioos:station:NOAA.NDBC:SANF1:1,2015-06-01T14:50:00Z,24.4560,-81.8770,45.4,6.2,130.0,7.2,'1111122,1111122,1111122' 
NDBC,ioos:station:NOAA.NDBC:SANF1:1,2015-06-01T15:50:00Z,24.4560,-81.8770,45.4,5.7,120.0,6.2,'1111122,1111122,1111122' 
NDBC,ioos:station:NOAA.NDBC:SANF1:1,2015-06-01T16:50:00Z,24.4560,-81.8770,45.4,6.2,140.0,6.7,'1111122,1111122,1111122' 
NDBC,ioos:station:NOAA.NDBC:SANF1:1,2015-06-01T17:50:00Z,24.4560,-81.8770,45.4,5.7,120.0,6.2,'1111122,1111122,1111122' 
NDBC,ioos:station:NOAA.NDBC:SANF1:1,2015-06-01T18:50:00Z,24.4560,-81.8770,45.4,5.7,120.0,6.7,'1111122,1111122,1111122' 
NDBC,ioos:station:NOAA.NDBC:SANF1:1,2015-06-01T19:50:00Z,24.4560,-81.8770,45.4,4.1,130.0,5.7,'1111122,1111122,1111122' 
NDBC,ioos:station:NOAA.NDBC:SANF1:1,2015-06-01T21:50:00Z,24.4560,-81.8770,45.4,5.1,120.0,5.7,'1111122,1111122,1111122' 
NDBC,ioos:station:NOAA.NDBC:SANF1:1,2015-06-01T23:50:00Z,24.4560,-81.8770,45.4,4.6,110.0,5.1,'1111122,1111122,1111122' 
NDBC,ioos:station:NOAA.NDBC:SANF1:1,2015-06-02T00:50:00Z,24.4560,-81.8770,45.4,5.7,110.0,6.7,'1111122,1111122,1111122' 
NDBC,ioos:station:NOAA.NDBC:SANF1:1,2015-06-02T01:50:00Z,24.4560,-81.8770,45.4,6.2,110.0,7.2,'1111122,1111122,1111122' 
NDBC,ioos:station:NOAA.NDBC:SANF1:1,2015-06-02T02:50:00Z,24.4560,-81.8770,45.4,5.7,100.0,6.2,'1111122,1111122,1111122' 
NDBC,ioos:station:NOAA.NDBC:SANF1:1,2015-06-02T04:50:00Z,24.4560,-81.8770,45.4,5.7,110.0,6.7,'1111122,1111122,1111122' 
NDBC,ioos:station:NOAA.NDBC:SANF1:1,2015-06-02T05:50:00Z,24.4560,-81.8770,45.4,5.7,110.0,6.2,'1111122,1111122,1111122' 
NDBC,ioos:station:NOAA.NDBC:SANF1:1,2015-06-02T06:50:00Z,24.4560,-81.8770,45.4,5.7,110.0,6.2,'1111122,1111122,1111122' 
NDBC,ioos:station:NOAA.NDBC:SANF1:1,2015-06-02T07:50:00Z,24.4560,-81.8770,45.4,5.1,110.0,5.7,'1111122,1111122,1111122' 
NDBC,ioos:station:NOAA.NDBC:SANF1:1,2015-06-02T09:50:00Z,24.4560,-81.8770,45.4,4.6,100.0,5.1,'1111122,1111122,1111122' 
NDBC,ioos:station:NOAA.NDBC:SANF1:1,2015-06-02T10:50:00Z,24.4560,-81.8770,45.4,3.6,100.0,4.1,'1111122,1111122,1111122' 
NDBC,ioos:station:NOAA.NDBC:SANF1:1,2015-06-02T12:50:00Z,24.4560,-81.8770,45.4,4.6,100.0,5.1,'1111122,1111122,1111122' 
NDBC,ioos:station:NOAA.NDBC:SANF1:1,2015-06-02T13:50:00Z,24.4560,-81.8770,45.4,4.1,100.0,4.6,'1111122,1111122,1111122' 
NDBC,ioos:station:NOAA.NDBC:SANF1:1,2015-06-02T15:50:00Z,24.4560,-81.8770,45.4,3.6,130.0,5.1,'1111122,1111122,1111122' 
NDBC,ioos:station:NOAA.NDBC:SANF1:1,2015-06-02T16:50:00Z,24.4560,-81.8770,45.4,3.6,130.0,4.6,'1111122,1111122,1111122' 
NDBC,ioos:station:NOAA.NDBC:SANF1:1,2015-06-02T18:50:00Z,24.4560,-81.8770,45.4,3.1,160.0,3.6,'1111122,1111122,1111122' 
NDBC,ioos:station:NOAA.NDBC:SANF1:1,2015-06-02T19:50:00Z,24.4560,-81.8770,45.4,3.1,150.0,4.1,'1111122,1111122,1111122' 
NDBC,ioos:station:NOAA.NDBC:SANF1:1,2015-06-02T20:50:00Z,24.4560,-81.8770,45.4,3.1,160.0,3.6,'1111122,1111122,1111122' 
NDBC,ioos:station:NOAA.NDBC:SANF1:1,2015-06-02T21:50:00Z,24.4560,-81.8770,45.4,1.5,170.0,2.1,'1111122,1111122,1111122' 
NDBC,ioos:station:NOAA.NDBC:SANF1:1,2015-06-02T22:50:00Z,24.4560,-81.8770,45.4,2.6,150.0,3.6,'1111122,1111122,1111122' 
NDBC,ioos:station:NOAA.NDBC:SANF1:1,2015-06-03T00:50:00Z,24.4560,-81.8770,45.4,2.6,150.0,3.6,'1111122,1111122,1111122' 
NDBC,ioos:station:NOAA.NDBC:SANF1:1,2015-06-03T01:50:00Z,24.4560,-81.8770,45.4,4.6,120.0,6.2,'1111122,1111122,1111122' 
NDBC,ioos:station:NOAA.NDBC:SANF1:1,2015-06-03T02:50:00Z,24.4560,-81.8770,45.4,6.2,120.0,7.2,'1111122,1111122,1111122' 
NDBC,ioos:station:NOAA.NDBC:SANF1:1,2015-06-03T03:50:00Z,24.4560,-81.8770,45.4,8.8,130.0,9.8,'1111122,1111122,1111122' 
NDBC,ioos:station:NOAA.NDBC:SANF1:1,2015-06-03T04:50:00Z,24.4560,-81.8770,45.4,7.2,110.0,8.8,'1111122,1111122,1111122' 
NDBC,ioos:station:NOAA.NDBC:SANF1:1,2015-06-03T05:50:00Z,24.4560,-81.8770,45.4,5.7,100.0,6.7,'1111122,1111122,1111122' 
NDBC,ioos:station:NOAA.NDBC:SANF1:1,2015-06-03T07:50:00Z,24.4560,-81.8770,45.4,5.1,110.0,6.2,'1111122,1111122,1111122' 
NDBC,ioos:station:NOAA.NDBC:SANF1:1,2015-06-03T08:50:00Z,24.4560,-81.8770,45.4,6.7,110.0,7.7,'1111122,1111122,1111122' 
NDBC,ioos:station:NOAA.NDBC:SANF1:1,2015-06-03T09:50:00Z,24.4560,-81.8770,45.4,5.1,110.0,6.2,'1111122,1111122,1111122' 
NDBC,ioos:station:NOAA.NDBC:SANF1:1,2015-06-03T10:50:00Z,24.4560,-81.8770,45.4,5.7,150.0,6.7,'1111122,1111122,1111122' 
NDBC,ioos:station:NOAA.NDBC:SANF1:1,2015-06-03T11:50:00Z,24.4560,-81.8770,45.4,4.6,160.0,5.7,'1111122,1111122,1111122' 
NDBC,ioos:station:NOAA.NDBC:SANF1:1,2015-06-03T12:50:00Z,24.4560,-81.8770,45.4,4.6,140.0,5.7,'1111122,1111122,1111122' 
NDBC,ioos:station:NOAA.NDBC:SANF1:1,2015-06-03T13:50:00Z,24.4560,-81.8770,45.4,2.6,120.0,3.6,'1111122,1111122,1111122' 
NDBC,ioos:station:NOAA.NDBC:SANF1:1,2015-06-03T14:50:00Z,24.4560,-81.8770,45.4,4.1,10.0,5.1,'1111122,1111122,1111122' 
NDBC,ioos:station:NOAA.NDBC:SANF1:1,2015-06-03T16:50:00Z,24.4560,-81.8770,45.4,4.1,60.0,4.6,'1111122,1111122,1111122' 
NDBC,ioos:station:NOAA.NDBC:SANF1:1,2015-06-03T17:50:00Z,24.4560,-81.8770,45.4,3.6,70.0,4.1,'1111122,1111122,1111122' 
NDBC,ioos:station:NOAA.NDBC:SANF1:1,2015-06-03T18:50:00Z,24.4560,-81.8770,45.4,4.1,80.0,4.6,'1111122,1111122,1111122' 
NDBC,ioos:station:NOAA.NDBC:SANF1:1,2015-06-03T19:50:00Z,24.4560,-81.8770,45.4,4.1,80.0,5.1,'1111122,1111122,1111122' 
NDBC,ioos:station:NOAA.NDBC:SANF1:1,2015-06-03T20:50:00Z,24.4560,-81.8770,45.4,4.1,90.0,4.6,'1111122,1111122,1111122' 
NDBC,ioos:station:NOAA.NDBC:SANF1:1,2015-06-03T21:50:00Z,24.4560,-81.8770,45.4,4.1,100.0,5.1,'1111122,1111122,1111122' 
NDBC,ioos:station:NOAA.NDBC:SANF1:1,2015-06-03T22:50:00Z,24.4560,-81.8770,45.4,4.6,100.0,5.7,'1111122,1111122,1111122' 
NDBC,ioos:station:NOAA.NDBC:SANF1:1,2015-06-03T23:50:00Z,24.4560,-81.8770,45.4,3.6,80.0,4.1,'1111122,1111122,1111122' 
NDBC,ioos:station:NOAA.NDBC:SANF1:1,2015-06-04T00:50:00Z,24.4560,-81.8770,45.4,3.6,90.0,4.1,'1111122,1111122,1111122' 
NDBC,ioos:station:NOAA.NDBC:SANF1:1,2015-06-04T01:50:00Z,24.4560,-81.8770,45.4,4.1,140.0,5.1,'1111122,1111122,1111122' 
NDBC,ioos:station:NOAA.NDBC:SANF1:1,2015-06-04T02:50:00Z,24.4560,-81.8770,45.4,4.1,130.0,5.1,'1111122,1111122,1111122' 
NDBC,ioos:station:NOAA.NDBC:SANF1:1,2015-06-04T03:50:00Z,24.4560,-81.8770,45.4,4.1,120.0,5.1,'1111122,1111122,1111122' 
NDBC,ioos:station:NOAA.NDBC:SANF1:1,2015-06-04T04:50:00Z,24.4560,-81.8770,45.4,3.6,110.0,4.6,'1111122,1111122,1111122' 
NDBC,ioos:station:NOAA.NDBC:SANF1:1,2015-06-04T05:50:00Z,24.4560,-81.8770,45.4,4.1,110.0,4.6,'1111122,1111122,1111122' 
NDBC,ioos:station:NOAA.NDBC:SANF1:1,2015-06-04T06:50:00Z,24.4560,-81.8770,45.4,4.6,130.0,5.7,'1111122,1111122,1111122' 
NDBC,ioos:station:NOAA.NDBC:SANF1:1,2015-06-04T08:50:00Z,24.4560,-81.8770,45.4,4.1,120.0,4.6,'1111122,1111122,1111122' 
NDBC,ioos:station:NOAA.NDBC:SANF1:1,2015-06-04T09:50:00Z,24.4560,-81.8770,45.4,3.6,130.0,4.1,'1111122,1111122,1111122' 
NDBC,ioos:station:NOAA.NDBC:SANF1:1,2015-06-04T10:50:00Z,24.4560,-81.8770,45.4,2.1,100.0,2.1,'1111122,1111122,1111122' 
NDBC,ioos:station:NOAA.NDBC:SANF1:1,2015-06-04T12:50:00Z,24.4560,-81.8770,45.4,2.1,150.0,2.6,'1111122,1111122,1111122' 
NDBC,ioos:station:NOAA.NDBC:SANF1:1,2015-06-04T13:50:00Z,24.4560,-81.8770,45.4,2.1,140.0,2.6,'1111122,1111122,1111122' 
NDBC,ioos:station:NOAA.NDBC:SANF1:1,2015-06-04T14:50:00Z,24.4560,-81.8770,45.4,3.1,140.0,3.6,'1111122,1111122,1111122' 
NDBC,ioos:station:NOAA.NDBC:SANF1:1,2015-06-04T15:50:00Z,24.4560,-81.8770,45.4,3.1,120.0,3.6,'1111122,1111122,1111122' 
NDBC,ioos:station:NOAA.NDBC:SANF1:1,2015-06-04T16:50:00Z,24.4560,-81.8770,45.4,2.6,120.0,4.6,'1111122,1111122,1111122' 
NDBC,ioos:station:NOAA.NDBC:SANF1:1,2015-06-04T17:50:00Z,24.4560,-81.8770,45.4,2.1,120.0,2.6,'1111122,1111122,1111122' 
NDBC,ioos:station:NOAA.NDBC:SANF1:1,2015-06-04T18:50:00Z,24.4560,-81.8770,45.4,3.6,110.0,4.6,'1111122,1111122,1111122' 
NDBC,ioos:station:NOAA.NDBC:SANF1:1,2015-06-04T19:50:00Z,24.4560,-81.8770,45.4,4.6,100.0,5.7,'1111122,1111122,1111122' 
NDBC,ioos:station:NOAA.NDBC:SANF1:1,2015-06-04T20:50:00Z,24.4560,-81.8770,45.4,5.1,100.0,6.2,'1111122,1111122,1111122' 
NDBC,ioos:station:NOAA.NDBC:SANF1:1,2015-06-04T21:50:00Z,24.4560,-81.8770,45.4,6.2,110.0,6.7,'1111122,1111122,1111122' 
NDBC,ioos:station:NOAA.NDBC:SANF1:1,2015-06-05T14:50:00Z,24.4560,-81.8770,45.4,2.6,60.0,3.1,'1111122,1111122,1111122' 
NDBC,ioos:station:NOAA.NDBC:SANF1:1,2015-06-05T15:50:00Z,24.4560,-81.8770,45.4,3.6,90.0,5.7,'1111122,1111122,1111122' 
NDBC,ioos:station:NOAA.NDBC:SANF1:1,2015-06-05T17:50:00Z,24.4560,-81.8770,45.4,3.6,80.0,11.3,'1111122,1111122,1111122' 
NDBC,ioos:station:NOAA.NDBC:SANF1:1,2015-06-05T19:50:00Z,24.4560,-81.8770,45.4,2.6,120.0,3.6,'1111122,1111122,1111122' 
NDBC,ioos:station:NOAA.NDBC:SANF1:1,2015-06-05T21:50:00Z,24.4560,-81.8770,45.4,3.6,110.0,4.1,'1111122,1111122,1111122' 
NDBC,ioos:station:NOAA.NDBC:SANF1:1,2015-06-05T22:50:00Z,24.4560,-81.8770,45.4,3.1,90.0,4.1,'1111122,1111122,1111122' 
NDBC,ioos:station:NOAA.NDBC:SANF1:1,2015-06-06T00:50:00Z,24.4560,-81.8770,45.4,5.1,120.0,5.7,'1111122,1111122,1111122' 
NDBC,ioos:station:NOAA.NDBC:SANF1:1,2015-06-06T01:50:00Z,24.4560,-81.8770,45.4,4.1,120.0,5.1,'1111122,1111122,1111122' 
NDBC,ioos:station:NOAA.NDBC:SANF1:1,2015-06-06T02:50:00Z,24.4560,-81.8770,45.4,9.8,110.0,12.4,'1111122,1111122,1111122' 
NDBC,ioos:station:NOAA.NDBC:SANF1:1,2015-06-06T03:50:00Z,24.4560,-81.8770,45.4,9.3,140.0,10.8,'1111122,1111122,1111122' 
NDBC,ioos:station:NOAA.NDBC:SANF1:1,2015-06-06T04:50:00Z,24.4560,-81.8770,45.4,8.2,150.0,9.8,'1111122,1111122,1111122' 
NDBC,ioos:station:NOAA.NDBC:SANF1:1,2015-06-06T06:50:00Z,24.4560,-81.8770,45.4,9.3,180.0,10.3,'1111122,1111122,1111122' 
NDBC,ioos:station:NOAA.NDBC:SANF1:1,2015-06-06T07:50:00Z,24.4560,-81.8770,45.4,7.2,180.0,8.8,'1111122,1111122,1111122' 
NDBC,ioos:station:NOAA.NDBC:SANF1:1,2015-06-06T08:50:00Z,24.4560,-81.8770,45.4,4.6,200.0,6.2,'1111122,1111122,1111122' 
NDBC,ioos:station:NOAA.NDBC:SANF1:1,2015-06-06T09:50:00Z,24.4560,-81.8770,45.4,3.1,220.0,3.6,'1111122,1111122,1111122' 
NDBC,ioos:station:NOAA.NDBC:SANF1:1,2015-06-06T10:50:00Z,24.4560,-81.8770,45.4,1.5,190.0,2.1,'1111122,1111122,1111122' 
NDBC,ioos:station:NOAA.NDBC:SANF1:1,2015-06-06T11:50:00Z,24.4560,-81.8770,45.4,1.0,240.0,1.5,'1111122,1111122,1111122' 
NDBC,ioos:station:NOAA.NDBC:SANF1:1,2015-06-06T12:50:00Z,24.4560,-81.8770,45.4,1.0,260.0,1.5,'1111122,1111122,1111122' 
NDBC,ioos:station:NOAA.NDBC:SANF1:1,2015-06-06T13:50:00Z,24.4560,-81.8770,45.4,1.0,350.0,1.5,'1111122,1111122,1111122' 
NDBC,ioos:station:NOAA.NDBC:SANF1:1,2015-06-06T14:50:00Z,24.4560,-81.8770,45.4,1.5,360.0,2.1,'1111122,1111122,1111122' 
NDBC,ioos:station:NOAA.NDBC:SANF1:1,2015-06-06T15:50:00Z,24.4560,-81.8770,45.4,1.0,40.0,1.5,'1111122,1111122,1111122' 
NDBC,ioos:station:NOAA.NDBC:SANF1:1,2015-06-06T16:50:00Z,24.4560,-81.8770,45.4,0.5,110.0,1.5,'1111122,1111122,1111122' 
NDBC,ioos:station:NOAA.NDBC:SANF1:1,2015-06-06T18:19:00Z,24.4560,-81.8770,45.4,0.5,210.0,1.0,'1111122,1111122,1111122' 
NDBC,ioos:station:NOAA.NDBC:SANF1:1,2015-06-06T19:50:00Z,24.4560,-81.8770,45.4,0.0,-9999.0,1.0,'1114422,1111122,1111122' 
NDBC,ioos:station:NOAA.NDBC:SANF1:1,2015-06-06T20:50:00Z,24.4560,-81.8770,45.4,1.0,10.0,1.5,'1111122,1111122,1111122' 
NDBC,ioos:station:NOAA.NDBC:SANF1:1,2015-06-06T21:50:00Z,24.4560,-81.8770,45.4,1.5,60.0,2.6,'1111122,1111122,1111122' 
NDBC,ioos:station:NOAA.NDBC:SANF1:1,2015-06-06T22:50:00Z,24.4560,-81.8770,45.4,2.1,10.0,3.1,'1111122,1111122,1111122' 
NDBC,ioos:station:NOAA.NDBC:SANF1:1,2015-06-06T23:50:00Z,24.4560,-81.8770,45.4,2.6,30.0,4.6,'1111122,1111122,1111122' 
NDBC,ioos:station:NOAA.NDBC:SANF1:1,2015-06-07T00:50:00Z,24.4560,-81.8770,45.4,3.6,90.0,4.6,'1111122,1111122,1111122' 
NDBC,ioos:station:NOAA.NDBC:SANF1:1,2015-06-07T01:50:00Z,24.4560,-81.8770,45.4,4.6,120.0,5.1,'1111122,1111122,1111122' 
NDBC,ioos:station:NOAA.NDBC:SANF1:1,2015-06-07T02:50:00Z,24.4560,-81.8770,45.4,4.1,130.0,5.7,'1111122,1111122,1111122' 
NDBC,ioos:station:NOAA.NDBC:SANF1:1,2015-06-07T03:50:00Z,24.4560,-81.8770,45.4,4.1,120.0,5.1,'1111122,1111122,1111122' 
NDBC,ioos:station:NOAA.NDBC:SANF1:1,2015-06-07T04:50:00Z,24.4560,-81.8770,45.4,4.1,110.0,5.1,'1111122,1111122,1111122' 
NDBC,ioos:station:NOAA.NDBC:SANF1:1,2015-06-07T06:50:00Z,24.4560,-81.8770,45.4,5.7,150.0,7.2,'1111122,1111122,1111122' 
NDBC,ioos:station:NOAA.NDBC:SANF1:1,2015-06-07T07:50:00Z,24.4560,-81.8770,45.4,4.6,130.0,5.7,'1111122,1111122,1111122' 
NDBC,ioos:station:NOAA.NDBC:SANF1:1,2015-06-07T08:50:00Z,24.4560,-81.8770,45.4,4.1,120.0,4.6,'1111122,1111122,1111122' 
NDBC,ioos:station:NOAA.NDBC:SANF1:1,2015-06-07T09:50:00Z,24.4560,-81.8770,45.4,2.6,130.0,3.1,'1111122,1111122,1111122' 
NDBC,ioos:station:NOAA.NDBC:SANF1:1,2015-06-07T10:50:00Z,24.4560,-81.8770,45.4,3.1,150.0,4.1,'1111122,1111122,1111122' 
NDBC,ioos:station:NOAA.NDBC:SANF1:1,2015-06-07T11:50:00Z,24.4560,-81.8770,45.4,2.1,140.0,2.6,'1111122,1111122,1111122' 
NDBC,ioos:station:NOAA.NDBC:SANF1:1,2015-06-07T12:50:00Z,24.4560,-81.8770,45.4,2.6,90.0,3.1,'1111122,1111122,1111122' 
NDBC,ioos:station:NOAA.NDBC:SANF1:1,2015-06-07T13:50:00Z,24.4560,-81.8770,45.4,3.1,100.0,4.1,'1111122,1111122,1111122' 
NDBC,ioos:station:NOAA.NDBC:SANF1:1,2015-06-07T14:50:00Z,24.4560,-81.8770,45.4,3.1,90.0,3.6,'1111122,1111122,1111122' 
NDBC,ioos:station:NOAA.NDBC:SANF1:1,2015-06-07T15:50:00Z,24.4560,-81.8770,45.4,3.6,100.0,5.1,'1111122,1111122,1111122' 
NDBC,ioos:station:NOAA.NDBC:SANF1:1,2015-06-07T16:50:00Z,24.4560,-81.8770,45.4,4.1,100.0,5.1,'1111122,1111122,1111122' 
NDBC,ioos:station:NOAA.NDBC:SANF1:1,2015-06-07T17:50:00Z,24.4560,-81.8770,45.4,4.6,110.0,5.1,'1111122,1111122,1111122' 
NDBC,ioos:station:NOAA.NDBC:SANF1:1,2015-06-07T18:50:00Z,24.4560,-81.8770,45.4,4.1,100.0,5.1,'1111122,1111122,1111122' 
NDBC,ioos:station:NOAA.NDBC:SANF1:1,2015-06-07T19:50:00Z,24.4560,-81.8770,45.4,4.1,100.0,5.1,'1111122,1111122,1111122' 
NDBC,ioos:station:NOAA.NDBC:SANF1:1,2015-06-07T20:50:00Z,24.4560,-81.8770,45.4,3.1,100.0,4.1,'1111122,1111122,1111122' 
NDBC,ioos:station:NOAA.NDBC:SANF1:1,2015-06-07T21:50:00Z,24.4560,-81.8770,45.4,4.1,100.0,5.1,'1111122,1111122,1111122' 
NDBC,ioos:station:NOAA.NDBC:SANF1:1,2015-06-07T22:50:00Z,24.4560,-81.8770,45.4,5.1,110.0,6.2,'1111122,1111122,1111122' 
NDBC,ioos:station:NOAA.NDBC:SANF1:1,2015-06-07T23:50:00Z,24.4560,-81.8770,45.4,6.7,90.0,7.7,'1111122,1111122,1111122' 
NDBC,ioos:station:NOAA.NDBC:SANF1:1,2015-06-08T00:50:00Z,24.4560,-81.8770,45.4,6.7,100.0,7.7,'1111122,1111122,1111122' 
NDBC,ioos:station:NOAA.NDBC:SANF1:1,2015-06-08T01:50:00Z,24.4560,-81.8770,45.4,7.2,100.0,8.2,'1111122,1111122,1111122' 
NDBC,ioos:station:NOAA.NDBC:SANF1:1,2015-06-08T02:50:00Z,24.4560,-81.8770,45.4,7.7,100.0,9.3,'1111122,1111122,1111122' 
NDBC,ioos:station:NOAA.NDBC:SANF1:1,2015-06-08T03:50:00Z,24.4560,-81.8770,45.4,6.2,100.0,7.7,'1111122,1111122,1111122' 
NDBC,ioos:station:NOAA.NDBC:SANF1:1,2015-06-08T04:50:00Z,24.4560,-81.8770,45.4,6.2,110.0,7.2,'1111122,1111122,1111122' 
NDBC,ioos:station:NOAA.NDBC:SANF1:1,2015-06-08T05:50:00Z,24.4560,-81.8770,45.4,6.7,130.0,7.7,'1111122,1111122,1111122' 
NDBC,ioos:station:NOAA.NDBC:SANF1:1,2015-06-08T07:50:00Z,24.4560,-81.8770,45.4,5.7,120.0,7.2,'1111122,1111122,1111122' 
NDBC,ioos:station:NOAA.NDBC:SANF1:1,2015-06-08T08:50:00Z,24.4560,-81.8770,45.4,5.1,130.0,6.2,'1111122,1111122,1111122' 
NDBC,ioos:station:NOAA.NDBC:SANF1:1,2015-06-08T10:50:00Z,24.4560,-81.8770,45.4,5.1,100.0,6.2,'1111122,1111122,1111122' 
NDBC,ioos:station:NOAA.NDBC:SANF1:1,2015-06-08T11:50:00Z,24.4560,-81.8770,45.4,4.6,110.0,5.7,'1111122,1111122,1111122' 
NDBC,ioos:station:NOAA.NDBC:SANF1:1,2015-06-08T12:50:00Z,24.4560,-81.8770,45.4,4.6,100.0,5.7,'1111122,1111122,1111122' 
NDBC,ioos:station:NOAA.NDBC:SANF1:1,2015-06-08T13:50:00Z,24.4560,-81.8770,45.4,5.1,110.0,6.2,'1111122,1111122,1111122' 
NDBC,ioos:station:NOAA.NDBC:SANF1:1,2015-06-08T14:50:00Z,24.4560,-81.8770,45.4,4.6,110.0,5.7,'1111122,1111122,1111122' 
NDBC,ioos:station:NOAA.NDBC:SANF1:1,2015-06-08T15:50:00Z,24.4560,-81.8770,45.4,5.7,100.0,6.2,'1111122,1111122,1111122' 
NDBC,ioos:station:NOAA.NDBC:SANF1:1,2015-06-08T16:50:00Z,24.4560,-81.8770,45.4,5.1,110.0,6.2,'1111122,1111122,1111122' 
NDBC,ioos:station:NOAA.NDBC:SANF1:1,2015-06-08T17:50:00Z,24.4560,-81.8770,45.4,5.7,110.0,6.2,'1111122,1111122,1111122' 
NDBC,ioos:station:NOAA.NDBC:SANF1:1,2015-06-08T18:50:00Z,24.4560,-81.8770,45.4,5.7,110.0,6.2,'1111122,1111122,1111122' 
NDBC,ioos:station:NOAA.NDBC:SANF1:1,2015-06-08T19:50:00Z,24.4560,-81.8770,45.4,5.7,120.0,6.2,'1111122,1111122,1111122' 
NDBC,ioos:station:NOAA.NDBC:SANF1:1,2015-06-08T20:50:00Z,24.4560,-81.8770,45.4,6.2,110.0,7.2,'1111122,1111122,1111122' 
NDBC,ioos:station:NOAA.NDBC:SANF1:1,2015-06-08T21:50:00Z,24.4560,-81.8770,45.4,6.2,120.0,7.2,'1111122,1111122,1111122' 
NDBC,ioos:station:NOAA.NDBC:SANF1:1,2015-06-08T22:50:00Z,24.4560,-81.8770,45.4,5.7,120.0,6.7,'1111122,1111122,1111122' 
NDBC,ioos:station:NOAA.NDBC:SANF1:1,2015-06-08T23:50:00Z,24.4560,-81.8770,45.4,6.7,110.0,8.2,'1111122,1111122,1111122' 
NDBC,ioos:station:NOAA.NDBC:SANF1:1,2015-06-09T00:50:00Z,24.4560,-81.8770,45.4,6.7,130.0,7.7,'1111122,1111122,1111122' 
NDBC,ioos:station:NOAA.NDBC:SANF1:1,2015-06-09T01:50:00Z,24.4560,-81.8770,45.4,7.7,130.0,8.8,'1111122,1111122,1111122' 
NDBC,ioos:station:NOAA.NDBC:SANF1:1,2015-06-09T02:50:00Z,24.4560,-81.8770,45.4,6.7,140.0,8.2,'1111122,1111122,1111122' 
NDBC,ioos:station:NOAA.NDBC:SANF1:1,2015-06-09T03:50:00Z,24.4560,-81.8770,45.4,6.7,150.0,7.7,'1111122,1111122,1111122' 
NDBC,ioos:station:NOAA.NDBC:SANF1:1,2015-06-09T04:50:00Z,24.4560,-81.8770,45.4,5.7,160.0,6.2,'1111122,1111122,1111122' 
NDBC,ioos:station:NOAA.NDBC:SANF1:1,2015-06-09T06:50:00Z,24.4560,-81.8770,45.4,3.1,190.0,3.6,'1111122,1111122,1111122' 
NDBC,ioos:station:NOAA.NDBC:SANF1:1,2015-06-09T07:50:00Z,24.4560,-81.8770,45.4,3.1,160.0,4.1,'1111122,1111122,1111122' 
NDBC,ioos:station:NOAA.NDBC:SANF1:1,2015-06-09T09:50:00Z,24.4560,-81.8770,45.4,4.1,160.0,4.6,'1111122,1111122,1111122' 
NDBC,ioos:station:NOAA.NDBC:SANF1:1,2015-06-09T10:50:00Z,24.4560,-81.8770,45.4,3.1,160.0,3.6,'1111122,1111122,1111122' 
NDBC,ioos:station:NOAA.NDBC:SANF1:1,2015-06-09T11:50:00Z,24.4560,-81.8770,45.4,3.1,150.0,4.1,'1111122,1111122,1111122' 
NDBC,ioos:station:NOAA.NDBC:SANF1:1,2015-06-09T12:50:00Z,24.4560,-81.8770,45.4,3.1,170.0,4.1,'1111122,1111122,1111122' 
NDBC,ioos:station:NOAA.NDBC:SANF1:1,2015-06-09T13:50:00Z,24.4560,-81.8770,45.4,3.1,150.0,4.1,'1111122,1111122,1111122' 
NDBC,ioos:station:NOAA.NDBC:SANF1:1,2015-06-09T14:50:00Z,24.4560,-81.8770,45.4,2.1,130.0,3.1,'1111122,1111122,1111122' 
NDBC,ioos:station:NOAA.NDBC:SANF1:1,2015-06-09T15:50:00Z,24.4560,-81.8770,45.4,2.6,120.0,3.6,'1111122,1111122,1111122' 
NDBC,ioos:station:NOAA.NDBC:SANF1:1,2015-06-09T17:50:00Z,24.4560,-81.8770,45.4,3.1,140.0,4.1,'1111122,1111122,1111122' 
NDBC,ioos:station:NOAA.NDBC:SANF1:1,2015-06-09T18:50:00Z,24.4560,-81.8770,45.4,3.6,140.0,4.6,'1111122,1111122,1111122' 
NDBC,ioos:station:NOAA.NDBC:SANF1:1,2015-06-09T19:50:00Z,24.4560,-81.8770,45.4,2.6,110.0,6.2,'1111122,1111122,1111122' 
NDBC,ioos:station:NOAA.NDBC:SANF1:1,2015-06-09T20:50:00Z,24.4560,-81.8770,45.4,5.7,130.0,6.7,'1111122,1111122,1111122' 
NDBC,ioos:station:NOAA.NDBC:SANF1:1,2015-06-09T21:50:00Z,24.4560,-81.8770,45.4,6.2,120.0,7.2,'1111122,1111122,1111122' 
NDBC,ioos:station:NOAA.NDBC:SANF1:1,2015-06-09T22:50:00Z,24.4560,-81.8770,45.4,6.7,130.0,7.7,'1111122,1111122,1111122' 
NDBC,ioos:station:NOAA.NDBC:SANF1:1,2015-06-09T23:50:00Z,24.4560,-81.8770,45.4,5.7,130.0,6.7,'1111122,1111122,1111122' 
NDBC,ioos:station:NOAA.NDBC:SANF1:1,2015-06-10T00:50:00Z,24.4560,-81.8770,45.4,13.9,170.0,17.0,'1111122,1111122,1111122' 
NDBC,ioos:station:NOAA.NDBC:SANF1:1,2015-06-10T01:50:00Z,24.4560,-81.8770,45.4,11.3,170.0,12.9,'1111122,1111122,1111122' 
NDBC,ioos:station:NOAA.NDBC:SANF1:1,2015-06-10T02:50:00Z,24.4560,-81.8770,45.4,6.2,200.0,6.7,'1111122,1111122,1111122' 
NDBC,ioos:station:NOAA.NDBC:SANF1:1,2015-06-10T03:50:00Z,24.4560,-81.8770,45.4,5.7,200.0,6.2,'1111122,1111122,1111122' 
NDBC,ioos:station:NOAA.NDBC:SANF1:1,2015-06-10T04:50:00Z,24.4560,-81.8770,45.4,4.6,180.0,5.7,'1111122,1111122,1111122' 
NDBC,ioos:station:NOAA.NDBC:SANF1:1,2015-06-10T05:50:00Z,24.4560,-81.8770,45.4,4.6,270.0,6.2,'1111122,1111122,1111122' 
NDBC,ioos:station:NOAA.NDBC:SANF1:1,2015-06-10T07:50:00Z,24.4560,-81.8770,45.4,0.5,70.0,1.0,'1111122,1111122,1111122' 
NDBC,ioos:station:NOAA.NDBC:SANF1:1,2015-06-10T08:50:00Z,24.4560,-81.8770,45.4,0.5,130.0,1.0,'1111122,1111122,1111122' 
NDBC,ioos:station:NOAA.NDBC:SANF1:1,2015-06-10T10:50:00Z,24.4560,-81.8770,45.4,2.1,130.0,2.6,'1111122,1111122,1111122' 
NDBC,ioos:station:NOAA.NDBC:SANF1:1,2015-06-10T11:50:00Z,24.4560,-81.8770,45.4,2.6,100.0,3.1,'1111122,1111122,1111122' 
NDBC,ioos:station:NOAA.NDBC:SANF1:1,2015-06-10T12:50:00Z,24.4560,-81.8770,45.4,4.1,140.0,5.1,'1111122,1111122,1111122' 
NDBC,ioos:station:NOAA.NDBC:SANF1:1,2015-06-10T13:50:00Z,24.4560,-81.8770,45.4,4.6,150.0,5.7,'1111122,1111122,1111122' 
NDBC,ioos:station:NOAA.NDBC:SANF1:1,2015-06-10T14:50:00Z,24.4560,-81.8770,45.4,5.1,160.0,5.7,'1111122,1111122,1111122' 
NDBC,ioos:station:NOAA.NDBC:SANF1:1,2015-06-10T15:50:00Z,24.4560,-81.8770,45.4,5.1,140.0,6.2,'1111122,1111122,1111122' 
NDBC,ioos:station:NOAA.NDBC:SANF1:1,2015-06-10T16:50:00Z,24.4560,-81.8770,45.4,4.6,140.0,5.7,'1111122,1111122,1111122' 
NDBC,ioos:station:NOAA.NDBC:SANF1:1,2015-06-10T17:50:00Z,24.4560,-81.8770,45.4,6.7,140.0,7.7,'1111122,1111122,1111122' 
NDBC,ioos:station:NOAA.NDBC:SANF1:1,2015-06-10T18:50:00Z,24.4560,-81.8770,45.4,6.2,140.0,7.2,'1111122,1111122,1111122' 
NDBC,ioos:station:NOAA.NDBC:SANF1:1,2015-06-10T19:50:00Z,24.4560,-81.8770,45.4,6.2,160.0,7.2,'1111122,1111122,1111122' 
NDBC,ioos:station:NOAA.NDBC:SANF1:1,2015-06-10T20:50:00Z,24.4560,-81.8770,45.4,5.1,140.0,5.7,'1111122,1111122,1111122' 
NDBC,ioos:station:NOAA.NDBC:SANF1:1,2015-06-10T22:50:00Z,24.4560,-81.8770,45.4,3.6,130.0,4.1,'1111122,1111122,1111122' 
NDBC,ioos:station:NOAA.NDBC:SANF1:1,2015-06-10T23:50:00Z,24.4560,-81.8770,45.4,4.6,120.0,5.1,'1111122,1111122,1111122' 
NDBC,ioos:station:NOAA.NDBC:SANF1:1,2015-06-11T00:50:00Z,24.4560,-81.8770,45.4,6.2,120.0,7.7,'1111122,1111122,1111122' 
NDBC,ioos:station:NOAA.NDBC:SANF1:1,2015-06-11T01:50:00Z,24.4560,-81.8770,45.4,2.1,340.0,2.1,'1111122,1111122,1111122' 
NDBC,ioos:station:NOAA.NDBC:SANF1:1,2015-06-11T02:50:00Z,24.4560,-81.8770,45.4,8.8,90.0,12.4,'1111122,1111122,1111122' 
NDBC,ioos:station:NOAA.NDBC:SANF1:1,2015-06-11T03:50:00Z,24.4560,-81.8770,45.4,5.7,100.0,6.7,'1111122,1111122,1111122' 